Home   Weather   Muktsar   Past weeks

Flag for India Past Weather in Muktsar, Punjab, India — Yesterday and Last 2 Weeks

Now
72 °F

Scattered clouds.


Feels Like: 77 °F
Forecast: 52 / 77 °F
Wind: 3 mph from Southeast

Location: Lahore Airport

Current Time: Dec 3, 2016 at 12:26:19 pm

Latest Report: Dec 3, 2016 at 11:55 am


Visibility: 1 mi

Pressure: 30.15 "Hg

Humidity: 44%

Dew Point: 48 °F

Location of MuktsarLocation

Past Weather in Muktsar — Graph

°F

Muktsar Temperature Yesterday

Maximum temperature yesterday: 79 °F (at 3:55 pm)
Minimum temperature yesterday: 48 °F (at 7:55 am)
Average temperature yesterday: 63 °F

High & Low Weather Summary for the Past Weeks

 TemperatureHumidityPressure
High84 °F (Nov 21, 2:25 pm)100% (Dec 2, 2:55 am)30.15 "Hg (Dec 2, 2:55 am)
Low46 °F (Dec 3, 7:55 am)17% (Nov 28, 2:25 pm)29.86 "Hg (Nov 19, 2:25 pm)
Average66 °F60%29.98 "Hg
* Reported Nov 18 9:55 am — Dec 3 10:25 am, Muktsar, Weather by CustomWeather, © 2016

Note: Actual official high and low records may vary slightly from our data, if they occured in-between our weather recording intervals... More about our weather records

Advertising

Muktsar Weather History for the Previous 24 Hours

Scroll right to see more
 ConditionsComfort  
Time TempWeatherWind HumidityBarometerVisibility
10:25 am
Sat, Dec 3
64 °FScattered clouds.No wind52%30.15 "Hg1 mi
9:55 am63 °FScattered clouds.No wind56%30.15 "Hg1 mi
9:25 am59 °FScattered clouds.No wind68%30.12 "Hg1 mi
8:55 am54 °FScattered clouds.No wind77%30.12 "Hg1 mi
8:25 am48 °FFog.No wind82%30.12 "Hg1 mi
7:55 am46 °FFog.3 mph87%30.09 "Hg1 mi
6:55 am48 °FFog.No wind82%30.09 "Hg1 mi
6:25 am50 °FFog.No wind76%30.07 "Hg1 mi
5:55 am50 °FClear.No wind76%30.07 "Hg2 mi
5:25 am50 °FClear.No wind76%30.07 "Hg2 mi
4:55 am50 °FClear.No wind76%30.07 "Hg2 mi
4:25 am50 °FClear.No wind76%30.07 "Hg2 mi
3:55 am52 °FClear.No wind72%30.07 "Hg2 mi
3:25 am52 °FClear.No wind72%30.07 "Hg2 mi
2:55 am54 °FClear.3 mph72%30.07 "Hg2 mi
2:25 am54 °FClear.No wind72%30.07 "Hg2 mi
1:55 am55 °FClear.No wind67%30.07 "Hg2 mi
1:25 am55 °FClear.No wind67%30.07 "Hg2 mi
12:55 am57 °FClear.No wind63%30.07 "Hg2 mi
12:25 am57 °FClear.No wind63%30.07 "Hg2 mi
11:55 pm
Fri, Dec 2
59 °FClear.No wind63%30.07 "Hg2 mi
11:25 pm59 °FClear.No wind63%30.07 "Hg2 mi
10:55 pm61 °FClear.No wind63%30.07 "Hg2 mi
9:25 pm64 °FClear.No wind56%30.07 "Hg2 mi
8:25 pm66 °FClear.No wind52%30.04 "Hg2 mi
7:25 pm70 °FHaze.No wind38%30.04 "Hg2 mi
6:55 pm70 °FHaze.No wind38%30.04 "Hg2 mi
5:25 pm75 °FHaze.3 mph27%30.04 "Hg2 mi
4:55 pm79 °FHaze.3 mph26%30.01 "Hg2 mi
4:25 pm79 °FHaze.3 mph26%30.01 "Hg2 mi
3:55 pm79 °FHaze.3 mph26%30.04 "Hg2 mi
3:25 pm77 °FHaze.5 mph30%30.04 "Hg2 mi
2:55 pm77 °FHaze.5 mph34%30.04 "Hg2 mi
2:25 pm75 °FHaze.3 mph39%30.04 "Hg2 mi
1:55 pm75 °FHaze.5 mph39%30.07 "Hg2 mi
1:25 pm75 °FHaze.5 mph39%30.07 "Hg2 mi
12:55 pm73 °FHaze.5 mph41%30.09 "Hg2 mi
Weather by CustomWeather, © 2016

See weather overviewHow to use our weather pages